Flag for Botswana Weather past 2 weeks in Francistown, Botswana

Now
64 °F

Partly sunny.


Feels Like: 64 °F
Forecast: 56 / 72 °F
Wind: 15 mph from East

Location: Francistown Airport

Current Time: Sep 5, 2015 at 1:11:56 PM

Latest Report: Sep 5, 2015 at 12:00 PM


Visibility: N/A

Pressure: 30.24 "Hg (26.93 "Hg at 989m altitude)

Humidity: 73%

Dew point: 55 °F

Location of FrancistownLocation

Historic Weather in Francistown — Graph

°F

Francistown temperature yesterday

Maximum temperature yesterday: 57 °F (at 12:00 AM)
Minimum temperature yesterday: 55 °F (at 11:00 AM)
Average temperature yesterday: 56 °F

Past Weeks' High & Low Weather Summary

 TemperatureHumidityPressure
High93 °F (Sep 1, 1:00 PM)100% (Sep 5, 5:00 AM)30.33 "Hg (Sep 5, 5:00 AM)
Low45 °F (Aug 27, 6:00 AM)9% (Aug 22, 2:00 PM)29.95 "Hg (Sep 1, 3:00 PM)
Average70 °F43%30.16 "Hg
* Reported Aug 21 12:00 Noon — Sep 5 12:00 Noon, Francistown, Weather by CustomWeather, © 2015

Note: Actual official high and low records may vary slightly from our data, if they occured in-between our weather recording intervals... More about our weather records

Advertising

Francistown weather history for previous 24 hours

 ConditionsComfort  
Time TempWeatherWind HumidityBarometerVisibility
12:00 PM
Sat, Sep 5
64 °FPartly sunny.15 mph73%30.24 "HgN/A
11:00 AM63 °FScattered clouds.13 mph77%30.30 "HgN/A
10:00 AM61 °FScattered clouds.12 mph83%30.33 "HgN/A
9:00 AM57 °FThunderstorms. Partly sunny.7 mph88%30.33 "HgN/A
8:00 AM57 °FThunderstorms. Partly sunny.13 mph88%30.30 "HgN/A
6:00 AM55 °FPartly sunny.12 mph94%30.30 "HgN/A
5:00 AM54 °FThunderstorms. Passing clouds.12 mph100%30.30 "HgN/A
4:00 AM55 °FThunderstorms. Passing clouds.14 mph94%30.24 "HgN/A
3:00 AM54 °FThunderstorms. Passing clouds.17 mph94%30.24 "HgN/A
2:00 AM57 °FThunderstorms. Passing clouds.12 mph88%30.21 "HgN/A
1:00 AM57 °FPassing clouds.12 mph88%30.24 "HgN/A
12:00 AM55 °FThunderstorms. Passing clouds.9 mph88%30.30 "HgN/A
11:00 PM
Fri, Sep 4
55 °FThunderstorms. Passing clouds.15 mph88%30.30 "HgN/A
9:00 PM55 °FThunderstorms. Passing clouds.13 mph88%30.30 "HgN/A
8:00 PM55 °FThunderstorms. Passing clouds.10 mph88%30.30 "HgN/A
7:00 PM55 °FPassing clouds.13 mph88%30.27 "HgN/A
6:00 PM55 °FPassing clouds.21 mph88%30.27 "HgN/A
5:00 PM55 °FThunderstorms. Partly sunny.20 mph88%30.27 "Hg6 mi
4:00 PM55 °FThunderstorms. Partly sunny.12 mph94%30.27 "Hg4 mi
3:00 PM55 °FThunderstorms. Partly sunny.14 mph94%30.33 "Hg4 mi
2:00 PM55 °FThunderstorms. Low clouds.15 mph94%30.33 "Hg5 mi
1:00 PM55 °FLow clouds.14 mph94%30.30 "Hg4 mi
Weather by CustomWeather, © 2015

See weather overviewHow to use our weather pages